Year,Month,Day,Hour,Minute,Value (Times are PST for temperature in C)
2006,09,26,00,00,11.90
2006,09,26,00,01,11.80
2006,09,26,00,02,11.80
2006,09,26,00,03,11.80
2006,09,26,00,04,11.80
2006,09,26,00,05,11.80
2006,09,26,00,06,11.80
2006,09,26,00,07,11.80
2006,09,26,00,08,11.80
2006,09,26,00,09,11.80
2006,09,26,00,10,11.80
2006,09,26,00,11,11.80
2006,09,26,00,12,11.80
2006,09,26,00,13,11.80
2006,09,26,00,14,11.70
2006,09,26,00,15,11.70
2006,09,26,00,16,11.70
2006,09,26,00,17,11.70
2006,09,26,00,18,11.70
2006,09,26,00,19,11.70
2006,09,26,00,20,11.60
2006,09,26,00,21,11.60
2006,09,26,00,22,11.60
2006,09,26,00,23,11.60
2006,09,26,00,24,11.60
2006,09,26,00,25,11.60
2006,09,26,00,26,11.60
2006,09,26,00,27,11.60
2006,09,26,00,28,11.60
2006,09,26,00,29,11.60
2006,09,26,00,30,11.60
2006,09,26,00,31,11.60
2006,09,26,00,32,11.60
2006,09,26,00,33,11.60
2006,09,26,00,34,11.60
2006,09,26,00,35,11.60
2006,09,26,00,36,11.60
2006,09,26,00,37,11.60
2006,09,26,00,38,11.60
2006,09,26,00,39,11.60
2006,09,26,00,40,11.60
2006,09,26,00,41,11.60
2006,09,26,00,42,11.50
2006,09,26,00,43,11.50
2006,09,26,00,44,11.50
2006,09,26,00,45,11.50
2006,09,26,00,46,11.50
2006,09,26,00,47,11.40
2006,09,26,00,48,11.40
2006,09,26,00,49,11.40
2006,09,26,00,50,11.40
2006,09,26,00,51,11.40
2006,09,26,00,52,11.40
2006,09,26,00,53,11.40
2006,09,26,00,54,11.40
2006,09,26,00,55,11.40
2006,09,26,00,56,11.40
2006,09,26,00,57,11.40
2006,09,26,00,58,11.40
2006,09,26,00,59,11.40
2006,09,26,01,00,11.40
2006,09,26,01,01,11.40
2006,09,26,01,02,11.40
2006,09,26,01,03,11.40
2006,09,26,01,04,11.40
2006,09,26,01,05,11.50
2006,09,26,01,06,11.50
2006,09,26,01,07,11.50
2006,09,26,01,08,11.50
2006,09,26,01,09,11.50
2006,09,26,01,10,11.40
2006,09,26,01,11,11.40
2006,09,26,01,12,11.40
2006,09,26,01,13,11.40
2006,09,26,01,14,11.30
2006,09,26,01,15,11.30
2006,09,26,01,16,11.30
2006,09,26,01,17,11.30
2006,09,26,01,18,11.30
2006,09,26,01,19,11.30
2006,09,26,01,20,11.30
2006,09,26,01,21,11.30
2006,09,26,01,22,11.30
2006,09,26,01,23,11.30
2006,09,26,01,24,11.30
2006,09,26,01,25,11.20
2006,09,26,01,26,11.20
2006,09,26,01,27,11.20
2006,09,26,01,28,11.20
2006,09,26,01,29,11.20
2006,09,26,01,30,11.20
2006,09,26,01,31,11.20
2006,09,26,01,32,11.10
2006,09,26,01,33,11.10
2006,09,26,01,34,11.10
2006,09,26,01,35,11.10
2006,09,26,01,36,11.10
2006,09,26,01,37,11.10
2006,09,26,01,38,11.00
2006,09,26,01,39,11.00
2006,09,26,01,40,11.00
2006,09,26,01,41,11.00
2006,09,26,01,42,10.90
2006,09,26,01,43,10.90
2006,09,26,01,44,10.90
2006,09,26,01,45,10.90
2006,09,26,01,46,10.90
2006,09,26,01,47,10.90
2006,09,26,01,48,10.90
2006,09,26,01,49,10.90
2006,09,26,01,50,10.90
2006,09,26,01,51,10.90
2006,09,26,01,52,10.80
2006,09,26,01,53,10.80
2006,09,26,01,54,10.80
2006,09,26,01,55,10.80
2006,09,26,01,56,10.80
2006,09,26,01,57,10.80
2006,09,26,01,58,10.80
2006,09,26,01,59,10.80
2006,09,26,02,00,10.80
2006,09,26,02,01,10.80
2006,09,26,02,02,10.80
2006,09,26,02,03,10.80
2006,09,26,02,04,10.80
2006,09,26,02,05,10.90
2006,09,26,02,06,10.90
2006,09,26,02,07,10.90
2006,09,26,02,08,10.90
2006,09,26,02,09,10.90
2006,09,26,02,10,10.90
2006,09,26,02,11,10.90
2006,09,26,02,12,10.80
2006,09,26,02,13,10.80
2006,09,26,02,14,10.80
2006,09,26,02,15,10.80
2006,09,26,02,16,10.80
2006,09,26,02,17,10.70
2006,09,26,02,18,10.70
2006,09,26,02,19,10.70
2006,09,26,02,20,10.70
2006,09,26,02,21,10.70
2006,09,26,02,22,10.70
2006,09,26,02,23,10.70
2006,09,26,02,24,10.70
2006,09,26,02,25,10.70
2006,09,26,02,26,10.70
2006,09,26,02,27,10.70
2006,09,26,02,28,10.70
2006,09,26,02,29,10.60
2006,09,26,02,30,10.60
2006,09,26,02,31,10.60
2006,09,26,02,32,10.60
2006,09,26,02,33,10.60
2006,09,26,02,34,10.60
2006,09,26,02,35,10.60
2006,09,26,02,36,10.60
2006,09,26,02,37,10.70
2006,09,26,02,38,10.70
2006,09,26,02,39,10.70
2006,09,26,02,40,10.70
2006,09,26,02,41,10.70
2006,09,26,02,42,10.70
2006,09,26,02,43,10.60
2006,09,26,02,44,10.60
2006,09,26,02,45,10.60
2006,09,26,02,46,10.60
2006,09,26,02,47,10.60
2006,09,26,02,48,10.60
2006,09,26,02,49,10.60
2006,09,26,02,50,10.60
2006,09,26,02,51,10.60
2006,09,26,02,52,10.60
2006,09,26,02,53,10.60
2006,09,26,02,54,10.50
2006,09,26,02,55,10.50
2006,09,26,02,56,10.50
2006,09,26,02,57,10.50
2006,09,26,02,58,10.50
2006,09,26,02,59,10.50
2006,09,26,03,00,10.40
2006,09,26,03,01,10.40
2006,09,26,03,02,10.40
2006,09,26,03,03,10.30
2006,09,26,03,04,10.30
2006,09,26,03,05,10.30
2006,09,26,03,06,10.30
2006,09,26,03,07,10.30
2006,09,26,03,08,10.40
2006,09,26,03,09,10.30
2006,09,26,03,10,10.30
2006,09,26,03,11,10.30
2006,09,26,03,12,10.30
2006,09,26,03,13,10.30
2006,09,26,03,14,10.30
2006,09,26,03,15,10.30
2006,09,26,03,16,10.30
2006,09,26,03,17,10.30
2006,09,26,03,18,10.30
2006,09,26,03,19,10.40
2006,09,26,03,20,10.40
2006,09,26,03,21,10.40
2006,09,26,03,22,10.40
2006,09,26,03,23,10.30
2006,09,26,03,24,10.30
2006,09,26,03,25,10.30
2006,09,26,03,26,10.30
2006,09,26,03,27,10.30
2006,09,26,03,28,10.30
2006,09,26,03,29,10.30
2006,09,26,03,30,10.30
2006,09,26,03,31,10.30
2006,09,26,03,32,10.30
2006,09,26,03,33,10.30
2006,09,26,03,34,10.30
2006,09,26,03,35,10.30
2006,09,26,03,36,10.30
2006,09,26,03,37,10.20
2006,09,26,03,38,10.20
2006,09,26,03,39,10.20
2006,09,26,03,40,10.30
2006,09,26,03,41,10.30
2006,09,26,03,42,10.30
2006,09,26,03,43,10.30
2006,09,26,03,44,10.30
2006,09,26,03,45,10.30
2006,09,26,03,46,10.30
2006,09,26,03,47,10.30
2006,09,26,03,48,10.30
2006,09,26,03,49,10.30
2006,09,26,03,50,10.30
2006,09,26,03,51,10.30
2006,09,26,03,52,10.20
2006,09,26,03,53,10.20
2006,09,26,03,54,10.20
2006,09,26,03,55,10.10
2006,09,26,03,56,10.10
2006,09,26,03,57,10.10
2006,09,26,03,58,10.20
2006,09,26,03,59,10.20
2006,09,26,04,00,10.20
2006,09,26,04,01,10.20
2006,09,26,04,02,10.20
2006,09,26,04,03,10.20
2006,09,26,04,04,10.20
2006,09,26,04,05,10.20
2006,09,26,04,06,10.20
2006,09,26,04,07,10.10
2006,09,26,04,08,10.10
2006,09,26,04,09,10.00
2006,09,26,04,10,10.00
2006,09,26,04,11,9.90
2006,09,26,04,12,9.90
2006,09,26,04,13,9.90
2006,09,26,04,14,9.90
2006,09,26,04,15,9.80
2006,09,26,04,16,9.80
2006,09,26,04,17,9.80
2006,09,26,04,18,9.80
2006,09,26,04,19,9.80
2006,09,26,04,20,9.90
2006,09,26,04,21,9.90
2006,09,26,04,22,9.90
2006,09,26,04,23,9.90
2006,09,26,04,24,9.90
2006,09,26,04,25,9.90
2006,09,26,04,26,9.90
2006,09,26,04,27,9.90
2006,09,26,04,28,9.90
2006,09,26,04,29,9.90
2006,09,26,04,30,9.90
2006,09,26,04,31,10.00
2006,09,26,04,32,10.00
2006,09,26,04,33,10.10
2006,09,26,04,34,10.10
2006,09,26,04,35,10.10
2006,09,26,04,36,10.10
2006,09,26,04,37,10.20
2006,09,26,04,38,10.20
2006,09,26,04,39,10.20
2006,09,26,04,40,10.10
2006,09,26,04,41,10.10
2006,09,26,04,42,10.10
2006,09,26,04,43,10.10
2006,09,26,04,44,10.10
2006,09,26,04,45,10.10
2006,09,26,04,46,10.10
2006,09,26,04,47,10.10
2006,09,26,04,48,10.10
2006,09,26,04,49,10.10
2006,09,26,04,50,10.10
2006,09,26,04,51,10.20
2006,09,26,04,52,10.20
2006,09,26,04,53,10.10
2006,09,26,04,54,10.10
2006,09,26,04,55,10.10
2006,09,26,04,56,10.10
2006,09,26,04,57,10.10
2006,09,26,04,58,10.10
2006,09,26,04,59,10.10
2006,09,26,05,00,10.10
2006,09,26,05,01,10.00
2006,09,26,05,02,10.00
2006,09,26,05,03,10.00
2006,09,26,05,04,10.00
2006,09,26,05,05,10.00
2006,09,26,05,06,9.90
2006,09,26,05,07,9.90
2006,09,26,05,08,9.90
2006,09,26,05,09,9.80
2006,09,26,05,10,9.80
2006,09,26,05,11,9.80
2006,09,26,05,12,9.80
2006,09,26,05,13,9.80
2006,09,26,05,14,9.80
2006,09,26,05,15,9.80
2006,09,26,05,16,9.80
2006,09,26,05,17,9.80
2006,09,26,05,18,9.80
2006,09,26,05,19,9.70
2006,09,26,05,20,9.70
2006,09,26,05,21,9.70
2006,09,26,05,22,9.70
2006,09,26,05,23,9.70
2006,09,26,05,24,9.70
2006,09,26,05,25,9.70
2006,09,26,05,26,9.70
2006,09,26,05,27,9.70
2006,09,26,05,28,9.70
2006,09,26,05,29,9.70
2006,09,26,05,30,9.80
2006,09,26,05,31,9.80
2006,09,26,05,32,9.90
2006,09,26,05,33,10.00
2006,09,26,05,34,10.10
2006,09,26,05,35,10.20
2006,09,26,05,36,10.20
2006,09,26,05,37,10.20
2006,09,26,05,38,10.20
2006,09,26,05,39,10.20
2006,09,26,05,40,10.10
2006,09,26,05,41,10.00
2006,09,26,05,42,9.90
2006,09,26,05,43,9.90
2006,09,26,05,44,9.90
2006,09,26,05,45,9.80
2006,09,26,05,46,9.70
2006,09,26,05,47,9.70
2006,09,26,05,48,9.70
2006,09,26,05,49,9.60
2006,09,26,05,50,9.60
2006,09,26,05,51,9.60
2006,09,26,05,52,9.60
2006,09,26,05,53,9.60
2006,09,26,05,54,9.60
2006,09,26,05,55,9.60
2006,09,26,05,56,9.60
2006,09,26,05,57,9.60
2006,09,26,05,58,9.60
2006,09,26,05,59,9.60
2006,09,26,06,00,9.60
2006,09,26,06,01,9.60
2006,09,26,06,02,9.50
2006,09,26,06,03,9.50
2006,09,26,06,04,9.50
2006,09,26,06,05,9.40
2006,09,26,06,06,9.40
2006,09,26,06,07,9.40
2006,09,26,06,08,9.40
2006,09,26,06,09,9.40
2006,09,26,06,10,9.50
2006,09,26,06,11,9.50
2006,09,26,06,12,9.60
2006,09,26,06,13,9.60
2006,09,26,06,14,9.60
2006,09,26,06,15,9.60
2006,09,26,06,16,9.50
2006,09,26,06,17,9.50
2006,09,26,06,18,9.50
2006,09,26,06,19,9.50
2006,09,26,06,20,9.40
2006,09,26,06,21,9.40
2006,09,26,06,22,9.40
2006,09,26,06,23,9.40
2006,09,26,06,24,9.30
2006,09,26,06,25,9.30
2006,09,26,06,26,9.30
2006,09,26,06,27,9.30
2006,09,26,06,28,9.30
2006,09,26,06,29,9.30
2006,09,26,06,30,9.30
2006,09,26,06,31,9.30
2006,09,26,06,32,9.30
2006,09,26,06,33,9.30
2006,09,26,06,34,9.20
2006,09,26,06,35,9.20
2006,09,26,06,36,9.20
2006,09,26,06,37,9.20
2006,09,26,06,38,9.20
2006,09,26,06,39,9.20
2006,09,26,06,40,9.20
2006,09,26,06,41,9.20
2006,09,26,06,42,9.20
2006,09,26,06,43,9.20
2006,09,26,06,44,9.20
2006,09,26,06,45,9.20
2006,09,26,06,46,9.20
2006,09,26,06,47,9.30
2006,09,26,06,48,9.30
2006,09,26,06,49,9.30
2006,09,26,06,50,9.30
2006,09,26,06,51,9.30
2006,09,26,06,52,9.30
2006,09,26,06,53,9.30
2006,09,26,06,54,9.30
2006,09,26,06,55,9.20
2006,09,26,06,56,9.20
2006,09,26,06,57,9.30
2006,09,26,06,58,9.30
2006,09,26,06,59,9.30
2006,09,26,07,00,9.30
2006,09,26,07,01,9.30
2006,09,26,07,02,9.30
2006,09,26,07,03,9.30
2006,09,26,07,04,9.30
2006,09,26,07,05,9.30
2006,09,26,07,06,9.30
2006,09,26,07,07,9.30
2006,09,26,07,08,9.30
2006,09,26,07,09,9.30
2006,09,26,07,10,9.30
2006,09,26,07,11,9.30
2006,09,26,07,12,9.40
2006,09,26,07,13,9.40
2006,09,26,07,14,9.30
2006,09,26,07,15,9.30
2006,09,26,07,16,9.30
2006,09,26,07,17,9.30
2006,09,26,07,18,9.30
2006,09,26,07,19,9.40
2006,09,26,07,20,9.40
2006,09,26,07,21,9.40
2006,09,26,07,22,9.40
2006,09,26,07,23,9.40
2006,09,26,07,24,9.40
2006,09,26,07,25,9.40
2006,09,26,07,26,9.40
2006,09,26,07,27,9.50
2006,09,26,07,28,9.50
2006,09,26,07,29,9.50
2006,09,26,07,30,9.50
2006,09,26,07,31,9.60
2006,09,26,07,32,9.60
2006,09,26,07,33,9.60
2006,09,26,07,34,9.60
2006,09,26,07,35,9.60
2006,09,26,07,36,9.70
2006,09,26,07,37,9.70
2006,09,26,07,38,9.70
2006,09,26,07,39,9.80
2006,09,26,07,40,9.80
2006,09,26,07,41,9.80
2006,09,26,07,42,9.90
2006,09,26,07,43,9.90
2006,09,26,07,44,10.00
2006,09,26,07,45,10.00
2006,09,26,07,46,10.10
2006,09,26,07,47,10.20
2006,09,26,07,48,10.20
2006,09,26,07,49,10.30
2006,09,26,07,50,10.30
2006,09,26,07,51,10.40
2006,09,26,07,52,10.40
2006,09,26,07,53,10.40
2006,09,26,07,54,10.40
2006,09,26,07,55,10.50
2006,09,26,07,56,10.50
2006,09,26,07,57,10.60
2006,09,26,07,58,10.60
2006,09,26,07,59,10.70
2006,09,26,08,00,10.70
2006,09,26,08,01,10.70
2006,09,26,08,02,10.80
2006,09,26,08,03,10.80
2006,09,26,08,04,10.90
2006,09,26,08,05,11.00
2006,09,26,08,06,11.10
2006,09,26,08,07,11.20
2006,09,26,08,08,11.20
2006,09,26,08,09,11.30
2006,09,26,08,10,11.40
2006,09,26,08,11,11.40
2006,09,26,08,12,11.50
2006,09,26,08,13,11.60
2006,09,26,08,14,11.60
2006,09,26,08,15,11.70
2006,09,26,08,16,11.70
2006,09,26,08,17,11.80
2006,09,26,08,18,11.80
2006,09,26,08,19,11.90
2006,09,26,08,20,12.00
2006,09,26,08,21,12.00
2006,09,26,08,22,12.10
2006,09,26,08,23,12.20
2006,09,26,08,24,12.30
2006,09,26,08,25,12.40
2006,09,26,08,26,12.40
2006,09,26,08,27,12.50
2006,09,26,08,28,12.60
2006,09,26,08,29,12.70
2006,09,26,08,30,12.80
2006,09,26,08,31,12.90
2006,09,26,08,32,13.00
2006,09,26,08,33,13.10
2006,09,26,08,34,13.10
2006,09,26,08,35,13.20
2006,09,26,08,36,13.30
2006,09,26,08,37,13.40
2006,09,26,08,38,13.60
2006,09,26,08,39,13.70
2006,09,26,08,40,13.80
2006,09,26,08,41,14.00
2006,09,26,08,42,14.10
2006,09,26,08,43,14.20
2006,09,26,08,44,14.30
2006,09,26,08,45,14.50
2006,09,26,08,46,14.60
2006,09,26,08,47,14.70
2006,09,26,08,48,14.90
2006,09,26,08,49,15.00
2006,09,26,08,50,15.00
2006,09,26,08,51,15.10
2006,09,26,08,52,15.20
2006,09,26,08,53,15.30
2006,09,26,08,54,15.40
2006,09,26,08,55,15.50
2006,09,26,08,56,15.50
2006,09,26,08,57,15.50
2006,09,26,08,58,15.60
2006,09,26,08,59,15.60
2006,09,26,09,00,15.70
2006,09,26,09,01,15.70
2006,09,26,09,02,15.70
2006,09,26,09,03,15.80
2006,09,26,09,04,15.90
2006,09,26,09,05,16.00
2006,09,26,09,06,16.10
2006,09,26,09,07,16.20
2006,09,26,09,08,16.30
2006,09,26,09,09,16.40
2006,09,26,09,10,16.50
2006,09,26,09,11,16.60
2006,09,26,09,12,16.70
2006,09,26,09,13,16.80
2006,09,26,09,14,16.80
2006,09,26,09,15,16.80
2006,09,26,09,16,16.90
2006,09,26,09,17,16.90
2006,09,26,09,18,17.00
2006,09,26,09,19,17.00
2006,09,26,09,20,17.10
2006,09,26,09,21,17.10
2006,09,26,09,22,17.10
2006,09,26,09,23,17.10
2006,09,26,09,24,17.20
2006,09,26,09,25,17.20
2006,09,26,09,26,17.30
2006,09,26,09,27,17.30
2006,09,26,09,28,17.30
2006,09,26,09,29,17.40
2006,09,26,09,30,17.40
2006,09,26,09,31,17.40
2006,09,26,09,32,17.50
2006,09,26,09,33,17.50
2006,09,26,09,34,17.50
2006,09,26,09,35,17.50
2006,09,26,09,36,17.60
2006,09,26,09,37,17.60
2006,09,26,09,38,17.70
2006,09,26,09,39,17.70
2006,09,26,09,40,17.80
2006,09,26,09,41,17.80
2006,09,26,09,42,17.90
2006,09,26,09,43,18.00
2006,09,26,09,44,18.10
2006,09,26,09,45,18.10
2006,09,26,09,46,18.20
2006,09,26,09,47,18.30
2006,09,26,09,48,18.30
2006,09,26,09,49,18.40
2006,09,26,09,50,18.50
2006,09,26,09,51,18.60
2006,09,26,09,52,18.60
2006,09,26,09,53,18.60
2006,09,26,09,54,18.60
2006,09,26,09,55,18.60
2006,09,26,09,56,18.70
2006,09,26,09,57,18.80
2006,09,26,09,58,18.80
2006,09,26,09,59,18.80
2006,09,26,10,00,18.80
2006,09,26,10,01,18.80
2006,09,26,10,02,18.90
2006,09,26,10,03,18.90
2006,09,26,10,04,18.90
2006,09,26,10,05,18.90
2006,09,26,10,06,18.90
2006,09,26,10,07,18.90
2006,09,26,10,08,18.90
2006,09,26,10,09,18.90
2006,09,26,10,10,18.90
2006,09,26,10,11,18.90
2006,09,26,10,12,18.80
2006,09,26,10,13,18.80
2006,09,26,10,14,18.90
2006,09,26,10,15,18.90
2006,09,26,10,16,18.90
2006,09,26,10,17,18.90
2006,09,26,10,18,18.90
2006,09,26,10,19,18.90
2006,09,26,10,20,19.00
2006,09,26,10,21,19.00
2006,09,26,10,22,19.10
2006,09,26,10,23,19.10
2006,09,26,10,24,19.10
2006,09,26,10,25,19.10
2006,09,26,10,26,19.10
2006,09,26,10,27,19.10
2006,09,26,10,28,19.10
2006,09,26,10,29,19.20
2006,09,26,10,30,19.20
2006,09,26,10,31,19.20
2006,09,26,10,32,19.20
2006,09,26,10,33,19.20
2006,09,26,10,34,19.10
2006,09,26,10,35,19.10
2006,09,26,10,36,19.10
2006,09,26,10,37,19.10
2006,09,26,10,38,19.20
2006,09,26,10,39,19.30
2006,09,26,10,40,19.40
2006,09,26,10,41,19.50
2006,09,26,10,42,19.50
2006,09,26,10,43,19.40
2006,09,26,10,44,19.40
2006,09,26,10,45,19.40
2006,09,26,10,46,19.50
2006,09,26,10,47,19.60
2006,09,26,10,48,19.60
2006,09,26,10,49,19.60
2006,09,26,10,50,19.50
2006,09,26,10,51,19.50
2006,09,26,10,52,19.40
2006,09,26,10,53,19.40
2006,09,26,10,54,19.40
2006,09,26,10,55,19.40
2006,09,26,10,56,19.30
2006,09,26,10,57,19.30
2006,09,26,10,58,19.40
2006,09,26,10,59,19.40
2006,09,26,11,00,19.50
2006,09,26,11,01,19.50
2006,09,26,11,02,19.50
2006,09,26,11,03,19.60
2006,09,26,11,04,19.70
2006,09,26,11,05,19.70
2006,09,26,11,06,19.70
2006,09,26,11,07,19.80
2006,09,26,11,08,19.80
2006,09,26,11,09,19.80
2006,09,26,11,10,19.80
2006,09,26,11,11,19.90
2006,09,26,11,12,19.90
2006,09,26,11,13,19.90
2006,09,26,11,14,19.90
2006,09,26,11,15,19.90
2006,09,26,11,16,20.00
2006,09,26,11,17,20.10
2006,09,26,11,18,20.20
2006,09,26,11,19,20.20
2006,09,26,11,20,20.10
2006,09,26,11,21,20.10
2006,09,26,11,22,20.10
2006,09,26,11,23,20.10
2006,09,26,11,24,20.20
2006,09,26,11,25,20.20
2006,09,26,11,26,20.10
2006,09,26,11,27,20.00
2006,09,26,11,28,19.90
2006,09,26,11,29,19.90
2006,09,26,11,30,19.90
2006,09,26,11,31,19.90
2006,09,26,11,32,20.00
2006,09,26,11,33,20.10
2006,09,26,11,34,20.10
2006,09,26,11,35,20.20
2006,09,26,11,36,20.10
2006,09,26,11,37,20.20
2006,09,26,11,38,20.30
2006,09,26,11,39,20.20
2006,09,26,11,40,20.20
2006,09,26,11,41,20.20
2006,09,26,11,42,20.20
2006,09,26,11,43,20.20
2006,09,26,11,44,20.20
2006,09,26,11,45,20.20
2006,09,26,11,46,20.20
2006,09,26,11,47,20.10
2006,09,26,11,48,20.10
2006,09,26,11,49,20.10
2006,09,26,11,50,20.10
2006,09,26,11,51,20.10
2006,09,26,11,52,20.00
2006,09,26,11,53,20.00
2006,09,26,11,54,19.90
2006,09,26,11,55,20.00
2006,09,26,11,56,20.10
2006,09,26,11,57,20.20
2006,09,26,11,58,20.20
2006,09,26,11,59,20.20
2006,09,26,12,00,20.20
2006,09,26,12,01,20.20
2006,09,26,12,02,20.20
2006,09,26,12,03,20.20
2006,09,26,12,04,20.20
2006,09,26,12,05,20.30
2006,09,26,12,06,20.40
2006,09,26,12,07,20.50
2006,09,26,12,08,20.60
2006,09,26,12,09,20.60
2006,09,26,12,10,20.60
2006,09,26,12,11,20.50
2006,09,26,12,12,20.50
2006,09,26,12,13,20.60
2006,09,26,12,14,20.60
2006,09,26,12,15,20.60
2006,09,26,12,16,20.60
2006,09,26,12,17,20.60
2006,09,26,12,18,20.50
2006,09,26,12,19,20.50
2006,09,26,12,20,20.60
2006,09,26,12,21,20.70
2006,09,26,12,22,20.60
2006,09,26,12,23,20.60
2006,09,26,12,24,20.70
2006,09,26,12,25,20.60
2006,09,26,12,26,20.60
2006,09,26,12,27,20.60
2006,09,26,12,28,20.70
2006,09,26,12,29,20.60
2006,09,26,12,30,20.70
2006,09,26,12,31,20.80
2006,09,26,12,32,20.80
2006,09,26,12,33,20.90
2006,09,26,12,34,21.00
2006,09,26,12,35,21.10
2006,09,26,12,36,21.20
2006,09,26,12,37,21.10
2006,09,26,12,38,21.00
2006,09,26,12,39,20.90
2006,09,26,12,40,20.90
2006,09,26,12,41,20.80
2006,09,26,12,42,20.80
2006,09,26,12,43,20.80
2006,09,26,12,44,20.70
2006,09,26,12,45,20.70
2006,09,26,12,46,20.70
2006,09,26,12,47,20.70
2006,09,26,12,48,20.70
2006,09,26,12,49,20.70
2006,09,26,12,50,20.70
2006,09,26,12,51,20.80
2006,09,26,12,52,20.80
2006,09,26,12,53,20.80
2006,09,26,12,54,20.80
2006,09,26,12,55,20.80
2006,09,26,12,56,20.80
2006,09,26,12,57,20.80
2006,09,26,12,58,20.90
2006,09,26,12,59,20.90
2006,09,26,13,00,20.90
2006,09,26,13,01,21.00
2006,09,26,13,02,21.10
2006,09,26,13,03,21.20
2006,09,26,13,04,21.30
2006,09,26,13,05,21.30
2006,09,26,13,06,21.30
2006,09,26,13,07,21.40
2006,09,26,13,08,21.40
2006,09,26,13,09,21.40
2006,09,26,13,10,21.40
2006,09,26,13,11,21.40
2006,09,26,13,12,21.50
2006,09,26,13,13,21.50
2006,09,26,13,14,21.60
2006,09,26,13,15,21.60
2006,09,26,13,16,21.60
2006,09,26,13,17,21.60
2006,09,26,13,18,21.70
2006,09,26,13,19,21.70
2006,09,26,13,20,21.60
2006,09,26,13,21,21.60
2006,09,26,13,22,21.50
2006,09,26,13,23,21.50
2006,09,26,13,24,21.60
2006,09,26,13,25,21.60
2006,09,26,13,26,21.60
2006,09,26,13,27,21.60
2006,09,26,13,28,21.70
2006,09,26,13,29,21.70
2006,09,26,13,30,21.80
2006,09,26,13,31,21.80
2006,09,26,13,32,21.80
2006,09,26,13,33,21.80
2006,09,26,13,34,21.70
2006,09,26,13,35,21.70
2006,09,26,13,36,21.70
2006,09,26,13,37,21.70
2006,09,26,13,38,21.70
2006,09,26,13,39,21.70
2006,09,26,13,40,21.80
2006,09,26,13,41,21.90
2006,09,26,13,42,21.90
2006,09,26,13,43,21.80
2006,09,26,13,44,21.70
2006,09,26,13,45,21.80
2006,09,26,13,46,21.80
2006,09,26,13,47,21.90
2006,09,26,13,48,22.00
2006,09,26,13,49,22.00
2006,09,26,13,50,22.00
2006,09,26,13,51,22.10
2006,09,26,13,52,22.00
2006,09,26,13,53,22.10
2006,09,26,13,54,22.10
2006,09,26,13,55,22.00
2006,09,26,13,56,22.00
2006,09,26,13,57,22.00
2006,09,26,13,58,22.00
2006,09,26,13,59,22.10
2006,09,26,14,00,22.00
2006,09,26,14,01,22.00
2006,09,26,14,02,22.00
2006,09,26,14,03,22.00
2006,09,26,14,04,22.10
2006,09,26,14,05,22.20
2006,09,26,14,06,22.20
2006,09,26,14,07,22.30
2006,09,26,14,08,22.40
2006,09,26,14,09,22.30
2006,09,26,14,10,22.30
2006,09,26,14,11,22.30
2006,09,26,14,12,22.30
2006,09,26,14,13,22.50
2006,09,26,14,14,22.60
2006,09,26,14,15,22.60
2006,09,26,14,16,22.50
2006,09,26,14,17,22.40
2006,09,26,14,18,22.30
2006,09,26,14,19,22.30
2006,09,26,14,20,22.30
2006,09,26,14,21,22.30
2006,09,26,14,22,22.40
2006,09,26,14,23,22.30
2006,09,26,14,24,22.40
2006,09,26,14,25,22.40
2006,09,26,14,26,22.40
2006,09,26,14,27,22.40
2006,09,26,14,28,22.40
2006,09,26,14,29,22.30
2006,09,26,14,30,22.20
2006,09,26,14,31,22.20
2006,09,26,14,32,22.10
2006,09,26,14,33,22.20
2006,09,26,14,34,22.20
2006,09,26,14,35,22.20
2006,09,26,14,36,22.20
2006,09,26,14,37,22.20
2006,09,26,14,38,22.20
2006,09,26,14,39,22.30
2006,09,26,14,40,22.20
2006,09,26,14,41,22.10
2006,09,26,14,42,22.10
2006,09,26,14,43,22.10
2006,09,26,14,44,22.20
2006,09,26,14,45,22.20
2006,09,26,14,46,22.20
2006,09,26,14,47,22.20
2006,09,26,14,48,22.10
2006,09,26,14,49,22.10
2006,09,26,14,50,22.10
2006,09,26,14,51,22.20
2006,09,26,14,52,22.10
2006,09,26,14,53,22.10
2006,09,26,14,54,22.10
2006,09,26,14,55,22.10
2006,09,26,14,56,22.30
2006,09,26,14,57,22.30
2006,09,26,14,58,22.30
2006,09,26,14,59,22.20
2006,09,26,15,00,22.20
2006,09,26,15,01,22.30
2006,09,26,15,02,22.30
2006,09,26,15,03,22.30
2006,09,26,15,04,22.30
2006,09,26,15,05,22.40
2006,09,26,15,06,22.40
2006,09,26,15,07,22.40
2006,09,26,15,08,22.40
2006,09,26,15,09,22.30
2006,09,26,15,10,22.30
2006,09,26,15,11,22.40
2006,09,26,15,12,22.50
2006,09,26,15,13,22.50
2006,09,26,15,14,22.50
2006,09,26,15,15,22.50
2006,09,26,15,16,22.50
2006,09,26,15,17,22.50
2006,09,26,15,18,22.50
2006,09,26,15,19,22.40
2006,09,26,15,20,22.40
2006,09,26,15,21,22.40
2006,09,26,15,22,22.40
2006,09,26,15,23,22.40
2006,09,26,15,24,22.40
2006,09,26,15,25,22.50
2006,09,26,15,26,22.50
2006,09,26,15,27,22.40
2006,09,26,15,28,22.40
2006,09,26,15,29,22.40
2006,09,26,15,30,22.40
2006,09,26,15,31,22.40
2006,09,26,15,32,22.30
2006,09,26,15,33,22.30
2006,09,26,15,34,22.30
2006,09,26,15,35,22.30
2006,09,26,15,36,22.30
2006,09,26,15,37,22.30
2006,09,26,15,38,22.30
2006,09,26,15,39,22.30
2006,09,26,15,40,22.30
2006,09,26,15,41,22.30
2006,09,26,15,42,22.30
2006,09,26,15,43,22.30
2006,09,26,15,44,22.30
2006,09,26,15,45,22.30
2006,09,26,15,46,22.30
2006,09,26,15,47,22.40
2006,09,26,15,48,22.40
2006,09,26,15,49,22.40
2006,09,26,15,50,22.30
2006,09,26,15,51,22.30
2006,09,26,15,52,22.30
2006,09,26,15,53,22.30
2006,09,26,15,54,22.30
2006,09,26,15,55,22.30
2006,09,26,15,56,22.20
2006,09,26,15,57,22.30
2006,09,26,15,58,22.30
2006,09,26,15,59,22.30
2006,09,26,16,00,22.30
2006,09,26,16,01,22.30
2006,09,26,16,02,22.30
2006,09,26,16,03,22.30
2006,09,26,16,04,22.30
2006,09,26,16,05,22.30
2006,09,26,16,06,22.30
2006,09,26,16,07,22.30
2006,09,26,16,08,22.30
2006,09,26,16,09,22.30
2006,09,26,16,10,22.30
2006,09,26,16,11,22.30
2006,09,26,16,12,22.30
2006,09,26,16,13,22.30
2006,09,26,16,14,22.30
2006,09,26,16,15,22.40
2006,09,26,16,16,22.40
2006,09,26,16,17,22.40
2006,09,26,16,18,22.40
2006,09,26,16,19,22.30
2006,09,26,16,20,22.40
2006,09,26,16,21,22.40
2006,09,26,16,22,22.40
2006,09,26,16,23,22.30
2006,09,26,16,24,22.30
2006,09,26,16,25,22.40
2006,09,26,16,26,22.40
2006,09,26,16,27,22.50
2006,09,26,16,28,22.50
2006,09,26,16,29,22.50
2006,09,26,16,30,22.40
2006,09,26,16,31,22.40
2006,09,26,16,32,22.30
2006,09,26,16,33,22.20
2006,09,26,16,34,22.20
2006,09,26,16,35,22.20
2006,09,26,16,36,22.20
2006,09,26,16,37,22.20
2006,09,26,16,38,22.30
2006,09,26,16,39,22.30
2006,09,26,16,40,22.20
2006,09,26,16,41,22.20
2006,09,26,16,42,22.20
2006,09,26,16,43,22.20
2006,09,26,16,44,22.20
2006,09,26,16,45,22.10
2006,09,26,16,46,22.10
2006,09,26,16,47,22.10
2006,09,26,16,48,22.10
2006,09,26,16,49,22.20
2006,09,26,16,50,22.20
2006,09,26,16,51,22.20
2006,09,26,16,52,22.10
2006,09,26,16,53,22.10
2006,09,26,16,54,22.10
2006,09,26,16,55,22.10
2006,09,26,16,56,22.00
2006,09,26,16,57,22.00
2006,09,26,16,58,22.00
2006,09,26,16,59,21.90
2006,09,26,17,00,21.90
2006,09,26,17,01,21.90
2006,09,26,17,02,21.90
2006,09,26,17,03,21.90
2006,09,26,17,04,22.00
2006,09,26,17,05,22.00
2006,09,26,17,06,22.10
2006,09,26,17,07,22.00
2006,09,26,17,08,22.00
2006,09,26,17,09,22.00
2006,09,26,17,10,22.00
2006,09,26,17,11,22.00
2006,09,26,17,12,22.00
2006,09,26,17,13,22.00
2006,09,26,17,14,22.00
2006,09,26,17,15,21.90
2006,09,26,17,16,21.90
2006,09,26,17,17,21.90
2006,09,26,17,18,21.90
2006,09,26,17,19,21.80
2006,09,26,17,20,21.80
2006,09,26,17,21,21.80
2006,09,26,17,22,21.80
2006,09,26,17,23,21.80
2006,09,26,17,24,21.70
2006,09,26,17,25,21.70
2006,09,26,17,26,21.70